Погода в Карьеве

Россия / Пермский край     57°10′42″N   56°34′10″E
темп.,
°C
ветер,
м/с
пор.,
м/с
влажн.,
%
обл.,
%
осадки,
мм/ч
давл.,
гПа
погр.,
м
22 апреля, чт
чт2223:00+6ююв3457100 0.0 102950
02:00+5ююв3867100 0.0 1029151
05:00+5ю41166100 0.0 1029301
08:00+6ююз71366100 0.0 1029972
11:00+6ю81376100 0.1 10291215
14:00+5ю71184100 0.1 1029962
17:00+6ююз51184100 0.1 1030920
20:00+6ю51080100 0.0 1029773
23 апреля, пт
пт2323:00+5ю6896100 0.1 1029774
02:00+2ю51097100 0.9 1029491
05:00+2ю4899100 1.4 1029361
08:00+2ю3899100 0.0 1030352
11:00+3ююз4795100 0.1 1030483
14:00+5ююз3487100 0.0 1030601
17:00+6ю3478100 0.0 1030655
20:00+6ююв3481100 0.0 1029202
24 апреля, сб
сб2423:00+5вюв2280100 0.0 102946
02:00+3в3691100 0.0 1027114
05:00+2всв3794100 0.0 1025165
08:00+4всв3790100 0.0 1023249
11:00+8в5778100 0.0 1021723
14:00+6в41094100 1.2 1019632
17:00+6вюв5894100 2.6 1018782
20:00+5вюв51095100 1.4 1017543
25 апреля, вс
вс2523:00+5юв5992100 2.4 1016818
02:00+4вюв5897100 0.6 1014828
05:00+4вюв5898100 2.0 1013821
08:00+4юв4798100 0.6 1012749
11:00+4юв51096100 0.7 1010691
14:00+6ююв71292100 2.2 10091118
17:00+7зюз6117651 5.4 10101296
20:00+6зюз34766 0.1 101167
26 апреля, пн
пн2623:00+4ююз3492100 0.3 101391
02:00+3юз379497 0.1 1014156
05:00+1ююз369710 0.1 1015119
08:00+4юз5108569 0.0 1016389
11:00+8юз7106093 0.4 10161488
14:00+9зюз9114596 0.3 10162574
17:00+10зюз7114193 0.3 10162627
20:00+7юз4857100 0.0 1016202